• In Hungary
  • List of Countries
  • For 7 days
  • Water Temperature
  • Satellite Maps
  • Weather Map
  • News
  • Weather Widgets
  • user-avatar
    Login

    Hourly Weather Karmankino

    Today, 16 July, Monday

    Time Temperature Precipitation Wind Pressure Humidity
    00:00 +19°C° 0 mm 1 mps 733 mmHg 95%
    01:00 +18°C° 0 mm 1 mps 733 mmHg 96%
    02:00 +18°C° 0 mm 1 mps 734 mmHg 96%
    03:00 +18°C° 0.1 mm 1 mps 734 mmHg 96%
    04:00 +17°C° 0.1 mm 2 mps 734 mmHg 96%
    05:00 +18°C° 0.1 mm 2 mps 734 mmHg 96%
    06:00 +19°C° 0 mm 2 mps 734 mmHg 91%
    07:00 +21°C° 0 mm 2 mps 734 mmHg 86%
    08:00 +24°C° 0 mm 3 mps 734 mmHg 78%
    09:00 +25°C° 0.5 mm 3 mps 734 mmHg 74%
    10:00 +26°C° 0.5 mm 3 mps 734 mmHg 69%
    11:00 +27°C° 0.5 mm 4 mps 734 mmHg 64%
    12:00 +27°C° 0.4 mm 4 mps 734 mmHg 63%
    13:00 +27°C° 0.4 mm 4 mps 733 mmHg 67%
    14:00 +27°C° 0 mm 3 mps 734 mmHg 78%
    15:00 +27°C° 0.2 mm 3 mps 734 mmHg 74%
    16:00 +27°C° 0.2 mm 3 mps 734 mmHg 70%
    17:00 +27°C° 0.2 mm 4 mps 733 mmHg 67%
    18:00 +25°C° 0.1 mm 3 mps 733 mmHg 73%
    19:00 +24°C° 0.1 mm 3 mps 733 mmHg 79%
    20:00 +21°C° 0.1 mm 2 mps 733 mmHg 86%
    21:00 +21°C° 0.3 mm 2 mps 733 mmHg 88%
    22:00 +20°C° 0.3 mm 2 mps 733 mmHg 91%
    23:00 +19°C° 0.3 mm 2 mps 733 mmHg 93%

    Tomorrow, 17 July, Tuesday

    Time Temperature Precipitation Wind Pressure Humidity
    00:00 +19°C° 0 mm 3 mps 733 mmHg 94%
    01:00 +19°C° 0 mm 3 mps 733 mmHg 94%
    02:00 +18°C° 0 mm 3 mps 733 mmHg 94%
    03:00 +18°C° 0 mm 3 mps 733 mmHg 94%
    04:00 +19°C° 0 mm 3 mps 733 mmHg 93%
    05:00 +19°C° 0 mm 3 mps 733 mmHg 93%
    06:00 +20°C° 0 mm 4 mps 733 mmHg 86%
    07:00 +22°C° 0 mm 4 mps 733 mmHg 80%
    08:00 +23°C° 0 mm 5 mps 733 mmHg 74%
    09:00 +25°C° 0 mm 5 mps 733 mmHg 68%
    10:00 +27°C° 0 mm 5 mps 733 mmHg 63%
    11:00 +28°C° 0 mm 5 mps 733 mmHg 57%
    12:00 +28°C° 0 mm 5 mps 732 mmHg 55%
    13:00 +29°C° 0 mm 5 mps 732 mmHg 53%
    14:00 +29°C° 0 mm 6 mps 732 mmHg 51%
    15:00 +29°C° 0 mm 5 mps 732 mmHg 52%
    16:00 +28°C° 0 mm 5 mps 732 mmHg 54%
    17:00 +28°C° 0 mm 5 mps 732 mmHg 55%
    18:00 +26°C° 0 mm 4 mps 732 mmHg 62%
    19:00 +25°C° 0 mm 4 mps 732 mmHg 69%
    20:00 +22°C° 0 mm 3 mps 732 mmHg 75%
    21:00 +21°C° 0 mm 3 mps 731 mmHg 75%
    22:00 +21°C° 0 mm 3 mps 731 mmHg 75%
    23:00 +20°C° 0 mm 3 mps 731 mmHg 75%

    Day after tomorrow, 18 July, Wednesday

    Time Temperature Precipitation Wind Pressure Humidity
    00:00 +20°C° 0 mm 3 mps 731 mmHg 75%
    01:00 +19°C° 0 mm 3 mps 731 mmHg 75%
    02:00 +19°C° 0 mm 3 mps 731 mmHg 76%
    03:00 +19°C° 0 mm 3 mps 731 mmHg 77%
    04:00 +19°C° 0 mm 4 mps 731 mmHg 79%
    05:00 +18°C° 0 mm 4 mps 731 mmHg 80%
    06:00 +19°C° 0.4 mm 4 mps 731 mmHg 83%
    07:00 +19°C° 0.4 mm 4 mps 731 mmHg 86%
    08:00 +19°C° 0.4 mm 4 mps 731 mmHg 89%
    09:00 +20°C° 0 mm 4 mps 731 mmHg 84%
    10:00 +21°C° 0 mm 5 mps 731 mmHg 79%
    11:00 +22°C° 0 mm 5 mps 731 mmHg 75%
    12:00 +22°C° 0.1 mm 5 mps 731 mmHg 74%
    13:00 +22°C° 0.1 mm 5 mps 731 mmHg 73%
    14:00 +22°C° 0.1 mm 5 mps 731 mmHg 72%
    15:00 +22°C° 0.3 mm 5 mps 730 mmHg 74%
    16:00 +22°C° 0.3 mm 4 mps 730 mmHg 76%
    17:00 +22°C° 0.3 mm 4 mps 730 mmHg 79%
    18:00 +21°C° 0.7 mm 4 mps 730 mmHg 82%
    19:00 +20°C° 0.7 mm 4 mps 730 mmHg 85%
    20:00 +20°C° 0.7 mm 3 mps 730 mmHg 89%
    21:00 +19°C° 0.1 mm 3 mps 730 mmHg 90%
    22:00 +19°C° 0.1 mm 3 mps 730 mmHg 92%
    23:00 +19°C° 0.1 mm 3 mps 730 mmHg 93%

    19 July, Thursday

    Time Temperature Precipitation Wind Pressure Humidity
    00:00 +18°C° 0.2 mm 3 mps 730 mmHg 94%
    01:00 +18°C° 0.2 mm 3 mps 730 mmHg 96%
    02:00 +18°C° 0.2 mm 3 mps 730 mmHg 97%
    03:00 +18°C° 0.1 mm 3 mps 730 mmHg 97%
    04:00 +18°C° 0.1 mm 3 mps 730 mmHg 97%
    05:00 +18°C° 0.1 mm 3 mps 730 mmHg 97%
    06:00 +18°C° 0.1 mm 3 mps 730 mmHg 96%
    07:00 +19°C° 0.1 mm 3 mps 730 mmHg 95%
    08:00 +19°C° 0.1 mm 4 mps 730 mmHg 94%
    09:00 +19°C° 0.2 mm 4 mps 730 mmHg 93%
    10:00 +19°C° 0.2 mm 4 mps 730 mmHg 92%
    11:00 +20°C° 0.2 mm 4 mps 730 mmHg 91%
    12:00 +20°C° 0.3 mm 4 mps 730 mmHg 90%
    13:00 +21°C° 0.3 mm 4 mps 730 mmHg 89%
    14:00 +21°C° 0.3 mm 4 mps 729 mmHg 88%
    15:00 +21°C° 0.5 mm 4 mps 729 mmHg 88%
    16:00 +21°C° 0.5 mm 4 mps 729 mmHg 88%
    17:00 +21°C° 0.5 mm 4 mps 729 mmHg 88%
    18:00 +20°C° 0.5 mm 3 mps 729 mmHg 90%
    19:00 +20°C° 0.5 mm 3 mps 729 mmHg 92%
    20:00 +19°C° 0.5 mm 3 mps 729 mmHg 94%
    21:00 +19°C° 0.1 mm 3 mps 729 mmHg 95%
    22:00 +19°C° 0.1 mm 3 mps 729 mmHg 96%
    23:00 +18°C° 0.1 mm 3 mps 728 mmHg 96%

    20 July, Friday

    Time Temperature Precipitation Wind Pressure Humidity
    00:00 +18°C° 0.1 mm 3 mps 728 mmHg 97%
    01:00 +18°C° 0.1 mm 3 mps 728 mmHg 97%
    02:00 +19°C° 0.1 mm 3 mps 728 mmHg 97%
    03:00 +19°C° 0.3 mm 3 mps 728 mmHg 98%
    04:00 +19°C° 0.3 mm 3 mps 728 mmHg 98%
    05:00 +19°C° 0.3 mm 3 mps 728 mmHg 98%
    06:00 +19°C° 0.2 mm 3 mps 728 mmHg 97%
    07:00 +19°C° 0.2 mm 3 mps 728 mmHg 96%
    08:00 +20°C° 0.2 mm 3 mps 729 mmHg 95%
    09:00 +20°C° 0.3 mm 3 mps 729 mmHg 93%
    10:00 +21°C° 0.3 mm 3 mps 729 mmHg 90%
    11:00 +22°C° 0.3 mm 3 mps 729 mmHg 87%
    12:00 +24°C° 0.7 mm 3 mps 728 mmHg 84%
    13:00 +25°C° 0.7 mm 4 mps 728 mmHg 80%
    14:00 +25°C° 0.7 mm 4 mps 728 mmHg 77%
    15:00 +25°C° 0.5 mm 3 mps 728 mmHg 78%
    16:00 +25°C° 0.5 mm 3 mps 728 mmHg 79%
    17:00 +25°C° 0.5 mm 3 mps 728 mmHg 80%
    18:00 +24°C° 0.2 mm 2 mps 728 mmHg 85%
    19:00 +21°C° 0.2 mm 2 mps 728 mmHg 90%
    20:00 +20°C° 0.2 mm 2 mps 728 mmHg 95%
    21:00 +20°C° 0.3 mm 2 mps 727 mmHg 96%
    22:00 +19°C° 0.3 mm 2 mps 727 mmHg 97%
    23:00 +19°C° 0.3 mm 2 mps 727 mmHg 98%

    21 July, Saturday

    Time Temperature Precipitation Wind Pressure Humidity
    00:00 +18°C° 0.2 mm 2 mps 727 mmHg 98%
    01:00 +19°C° 0.2 mm 1 mps 727 mmHg 98%
    02:00 +19°C° 0.2 mm 1 mps 727 mmHg 99%
    03:00 +19°C° 0.1 mm 1 mps 727 mmHg 99%
    04:00 +19°C° 0.1 mm 1 mps 727 mmHg 99%
    05:00 +19°C° 0.1 mm 1 mps 727 mmHg 99%
    06:00 +20°C° 0.1 mm 1 mps 727 mmHg 97%
    07:00 +21°C° 0.1 mm 1 mps 727 mmHg 95%
    08:00 +22°C° 0.1 mm 1 mps 727 mmHg 93%
    09:00 +23°C° 0.1 mm 1 mps 727 mmHg 89%
    10:00 +23°C° 0.1 mm 1 mps 728 mmHg 86%
    11:00 +24°C° 0.1 mm 1 mps 728 mmHg 82%
    12:00 +25°C° 1.1 mm 1 mps 728 mmHg 79%
    13:00 +26°C° 1.1 mm 1 mps 728 mmHg 76%
    14:00 +27°C° 1.1 mm 1 mps 728 mmHg 73%
    15:00 +26°C° 0.6 mm 1 mps 728 mmHg 76%
    16:00 +26°C° 0.6 mm 1 mps 728 mmHg 79%
    17:00 +25°C° 0.6 mm 1 mps 728 mmHg 82%
    18:00 +24°C° 0.1 mm 1 mps 728 mmHg 86%
    19:00 +23°C° 0.1 mm 1 mps 728 mmHg 90%
    20:00 +22°C° 0.1 mm 1 mps 728 mmHg 94%
    21:00 +21°C° 0 mm 1 mps 728 mmHg 95%
    22:00 +21°C° 0 mm 1 mps 728 mmHg 96%
    23:00 +20°C° 0 mm 1 mps 728 mmHg 97%
    Show more